User: anonymous   Login
Location: Newark
(25.0000°N, 73.5000°E)
Time: 21:15:00
(UTC+00:00)
Language:

RS-15 - Orbit

View from above orbital plane
View from above orbital plane
View from above satellite
View from above satellite

Ground track
Ground track

The orbit data is extracted from the following two-line orbital elements,

1 23439U 94085A   20052.49437744 -.00000023 +00000-0 +54045-3 0  9995
2 23439 064.8159 075.3922 0146474 064.6101 296.9905 11.27568849035838
Epoch (UTC): 21 February 2020 11:51:54
Eccentricity: 0.0146474
inclination: 64.8159°
perigee height: 1899 km
apogee height: 2145 km
right ascension of ascending node: 75.3922°
argument of perigee: 64.6101°
revolutions per day: 11.27568849
mean anomaly at epoch: 296.9905°
orbit number at epoch: 3583

The dashed part of the orbit path shows where the satellite is in the earth's shadow,  

DLR